Terminal Aerodrome Forecast
Issued by NWS Upton, NY

Home | Current Version | Previous Version | Text Only | Print | Product List | Glossary On
Versions: 1 2 3 4 5 6 7 8 9 10 11 12 13 14 15 16 17 18 19 20 21 22 23 24 25 26 27
229
FTUS41 KOKX 081431 AAB
TAFISP
TAF AMD
KISP 081431Z 0815/0912 02020G28KT 1/2SM SN FZFG BKN004 OVC010
     FM082000 01015G23KT 1 1/2SM -SN BR OVC007
     FM082300 02008KT 6SM BR VCSH OVC015
     FM090300 04007KT 6SM BR VCSH OVC025=

USA.gov is the U.S. government's official web portal to all federal, state and local government web resources and services.